TimeCDT,TemperatureF,Dew PointF,Humidity,Sea Level PressureIn,VisibilityMPH,Wind Direction,Wind SpeedMPH,Gust SpeedMPH,PrecipitationIn,Events,Conditions,WindDirDegrees,DateUTC
12:15 AM,55.6,46.0,70,30.16,10.0,SE,12.7,-,N/A,,Clear,130,2013-05-24 05:15:00
12:35 AM,54.9,46.2,73,30.15,10.0,SE,9.2,-,N/A,,Clear,130,2013-05-24 05:35:00
12:55 AM,54.5,46.4,74,30.15,10.0,SE,10.4,-,N/A,,Clear,140,2013-05-24 05:55:00
1:15 AM,53.8,46.4,76,30.15,10.0,SE,10.4,-,N/A,,Clear,140,2013-05-24 06:15:00
1:35 AM,54.3,46.8,76,30.15,10.0,SE,10.4,-,N/A,,Mostly Cloudy,140,2013-05-24 06:35:00
1:55 AM,55.6,46.9,73,30.14,10.0,SE,13.8,-,N/A,,Overcast,140,2013-05-24 06:55:00
2:15 AM,56.3,47.3,72,30.14,10.0,SE,16.1,21.9,N/A,,Overcast,140,2013-05-24 07:15:00
2:35 AM,56.3,47.3,72,30.14,10.0,SSE,17.3,24.2,N/A,,Mostly Cloudy,150,2013-05-24 07:35:00
2:55 AM,56.3,46.9,71,30.14,10.0,SSE,18.4,24.2,N/A,,Scattered Clouds,150,2013-05-24 07:55:00
3:15 AM,56.7,47.3,71,30.13,10.0,SSE,18.4,26.5,N/A,,Mostly Cloudy,150,2013-05-24 08:15:00
3:35 AM,56.3,47.3,72,30.13,10.0,SSE,20.7,27.6,N/A,,Overcast,150,2013-05-24 08:35:00
3:55 AM,55.9,47.3,73,30.13,10.0,SSE,18.4,24.2,N/A,,Overcast,150,2013-05-24 08:55:00
4:15 AM,55.8,47.3,73,30.12,10.0,SE,17.3,23.0,N/A,,Overcast,140,2013-05-24 09:15:00
4:35 AM,55.9,47.3,73,30.11,10.0,SSE,19.6,26.5,N/A,,Overcast,150,2013-05-24 09:35:00
4:55 AM,55.9,48.2,75,30.11,10.0,SSE,19.6,27.6,N/A,,Overcast,150,2013-05-24 09:55:00
5:15 AM,55.8,48.7,77,30.10,10.0,SSE,23.0,29.9,N/A,,Overcast,150,2013-05-24 10:15:00
5:35 AM,55.8,49.1,78,30.10,10.0,SSE,23.0,31.1,N/A,,Overcast,150,2013-05-24 10:35:00
5:55 AM,55.6,49.1,79,30.09,10.0,SSE,20.7,31.1,N/A,,Overcast,150,2013-05-24 10:55:00
6:15 AM,55.6,49.1,79,30.10,10.0,SSE,23.0,-,N/A,,Overcast,150,2013-05-24 11:15:00
6:35 AM,55.6,49.1,79,30.10,10.0,SSE,19.6,28.8,N/A,,Overcast,150,2013-05-24 11:35:00
6:55 AM,55.8,49.5,79,30.11,10.0,SSE,19.6,27.6,N/A,,Overcast,150,2013-05-24 11:55:00
7:15 AM,55.8,49.5,79,30.10,10.0,SSE,23.0,28.8,N/A,,Overcast,150,2013-05-24 12:15:00
7:35 AM,56.3,50.0,79,30.10,10.0,SSE,20.7,29.9,N/A,,Overcast,150,2013-05-24 12:35:00
7:55 AM,56.3,50.0,79,30.10,10.0,SSE,19.6,25.3,N/A,,Overcast,150,2013-05-24 12:55:00
8:15 AM,56.5,50.0,79,30.10,10.0,SSE,24.2,31.1,N/A,,Overcast,150,2013-05-24 13:15:00
8:35 AM,56.5,50.0,79,30.10,10.0,SSE,21.9,31.1,N/A,,Overcast,160,2013-05-24 13:35:00
8:55 AM,56.5,50.2,79,30.11,10.0,SSE,25.3,31.1,N/A,,Overcast,150,2013-05-24 13:55:00
9:15 AM,56.3,50.4,80,30.10,10.0,SSE,24.2,32.2,N/A,,Overcast,150,2013-05-24 14:15:00
9:35 AM,56.7,50.9,81,30.10,10.0,SSE,26.5,-,N/A,,Overcast,160,2013-05-24 14:35:00
9:55 AM,57.2,50.9,79,30.11,10.0,SSE,24.2,31.1,N/A,,Overcast,160,2013-05-24 14:55:00
10:15 AM,57.7,51.1,78,30.10,10.0,SSE,20.7,31.1,N/A,,Overcast,160,2013-05-24 15:15:00
10:35 AM,58.5,51.1,76,30.10,10.0,SSE,25.3,31.1,N/A,,Overcast,160,2013-05-24 15:35:00
10:55 AM,59.2,51.3,75,30.09,10.0,South,26.5,31.1,N/A,,Overcast,170,2013-05-24 15:55:00
11:15 AM,59.5,51.3,74,30.09,10.0,SSE,26.5,32.2,N/A,,Overcast,160,2013-05-24 16:15:00
11:35 AM,60.6,51.4,72,30.07,10.0,South,28.8,35.7,N/A,,Overcast,170,2013-05-24 16:35:00
11:55 AM,61.2,51.8,71,30.08,10.0,South,23.0,34.5,N/A,,Overcast,170,2013-05-24 16:55:00
12:15 PM,62.6,51.8,68,30.07,10.0,SSE,24.2,32.2,N/A,,Overcast,160,2013-05-24 17:15:00
12:35 PM,63.7,52.5,67,30.07,10.0,South,20.7,34.5,N/A,,Overcast,180,2013-05-24 17:35:00
12:55 PM,64.4,52.5,65,30.07,10.0,South,19.6,31.1,N/A,,Overcast,180,2013-05-24 17:55:00
1:15 PM,64.6,52.9,66,30.06,10.0,South,19.6,29.9,N/A,,Overcast,170,2013-05-24 18:15:00
1:35 PM,65.3,53.2,65,30.05,10.0,South,20.7,24.2,N/A,,Overcast,170,2013-05-24 18:35:00
1:55 PM,65.3,53.2,65,30.05,10.0,South,21.9,27.6,N/A,,Overcast,180,2013-05-24 18:55:00
2:15 PM,65.7,53.4,65,30.07,10.0,South,17.3,23.0,N/A,,Overcast,180,2013-05-24 19:15:00
2:35 PM,66.6,53.8,63,30.05,10.0,South,16.1,21.9,N/A,,Overcast,180,2013-05-24 19:35:00
2:55 PM,67.1,53.8,62,30.05,10.0,South,13.8,18.4,N/A,,Overcast,180,2013-05-24 19:55:00
3:15 PM,68.7,54.5,60,30.03,10.0,South,11.5,18.4,N/A,,Overcast,180,2013-05-24 20:15:00
3:35 PM,70.0,54.9,59,30.03,10.0,South,13.8,20.7,N/A,,Overcast,170,2013-05-24 20:35:00
3:55 PM,71.6,55.2,56,30.02,10.0,South,20.7,26.5,N/A,,Overcast,170,2013-05-24 20:55:00
4:15 PM,72.0,55.4,56,30.02,10.0,South,16.1,25.3,N/A,,Overcast,180,2013-05-24 21:15:00
4:35 PM,72.1,55.6,56,30.02,10.0,South,20.7,27.6,N/A,,Overcast,170,2013-05-24 21:35:00
4:55 PM,72.0,55.6,56,30.01,10.0,SSE,20.7,25.3,N/A,,Overcast,160,2013-05-24 21:55:00
5:15 PM,72.7,55.8,55,30.00,10.0,South,16.1,27.6,N/A,,Overcast,170,2013-05-24 22:15:00
5:35 PM,73.4,55.9,54,30.00,10.0,South,20.7,24.2,N/A,,Scattered Clouds,180,2013-05-24 22:35:00
5:55 PM,74.1,56.3,54,29.99,10.0,South,19.6,23.0,N/A,,Scattered Clouds,170,2013-05-24 22:55:00
6:15 PM,73.6,56.5,55,29.99,10.0,South,16.1,-,N/A,,Scattered Clouds,170,2013-05-24 23:15:00
6:35 PM,74.3,56.7,54,29.98,10.0,South,15.0,23.0,N/A,,Scattered Clouds,180,2013-05-24 23:35:00
6:55 PM,74.3,57.0,55,29.98,10.0,South,13.8,17.3,N/A,,Clear,190,2013-05-24 23:55:00
7:15 PM,74.7,57.4,55,29.96,10.0,South,9.2,-,N/A,,Clear,180,2013-05-25 00:15:00
7:35 PM,74.5,57.6,55,29.96,10.0,SSE,11.5,-,N/A,,Clear,160,2013-05-25 00:35:00
7:55 PM,72.5,58.1,60,29.97,10.0,SSE,6.9,-,N/A,,Clear,160,2013-05-25 00:55:00
8:15 PM,71.6,58.3,63,29.98,10.0,SSE,4.6,-,N/A,,Clear,150,2013-05-25 01:15:00
8:35 PM,69.3,58.3,68,29.97,10.0,East,4.6,-,N/A,,Scattered Clouds,100,2013-05-25 01:35:00
8:55 PM,68.7,58.3,69,29.96,10.0,ESE,4.6,-,N/A,,Scattered Clouds,120,2013-05-25 01:55:00
9:15 PM,68.9,58.5,69,29.97,10.0,SE,5.8,-,N/A,,Clear,130,2013-05-25 02:15:00
9:35 PM,70.0,58.6,67,29.97,10.0,SE,15.0,-,N/A,,Clear,140,2013-05-25 02:35:00
9:55 PM,71.6,59.0,64,29.97,10.0,SSE,20.7,27.6,N/A,,Clear,160,2013-05-25 02:55:00
10:15 PM,71.6,56.8,60,29.96,10.0,SSE,16.1,19.6,N/A,,Clear,160,2013-05-25 03:15:00
10:35 PM,72.0,55.0,55,29.98,10.0,South,15.0,-,N/A,,Clear,170,2013-05-25 03:35:00
10:55 PM,70.0,57.0,63,29.95,10.0,SSE,15.0,19.6,N/A,,Clear,150,2013-05-25 03:55:00
11:15 PM,71.2,54.3,55,29.94,10.0,SSE,12.7,-,N/A,Thunderstorm,Clear,150,2013-05-25 04:15:00
11:35 PM,71.8,53.1,52,29.94,10.0,SSE,13.8,-,N/A,,Clear,160,2013-05-25 04:35:00
11:55 PM,72.3,48.9,43,29.94,10.0,South,16.1,-,N/A,,Clear,190,2013-05-25 04:55:00